Weather History for Blue Canyon, CA

Change the Weather History Date:

Saturday, September 8, 2012

  Actual Average Record
Temperature  
Mean Temperature 70 °F -  
Max Temperature 78 °F 74 °F 87 °F (1957)
Min Temperature 64 °F 55 °F 39 °F (1985)
Cooling Degree Days 6    
Growing Degree Days 20 (Base 50)    
Moisture  
Dew Point 47 °F    
Average Humidity 44    
Maximum Humidity 54    
Minimum Humidity 37    
Precipitation  
Precipitation 0.00 in - - ()
Sea Level Pressure  
Sea Level Pressure 29.95 in    
Wind  
Wind Speed 4 mph (SSE)    
Max Wind Speed 10 mph    
Max Gust Speed 20 mph    
Visibility 10 miles    
Events      
Averages and records for this station are not official NWS values.
T = Trace of Precipitation, MM = Missing Value Source: NWS Daily Summary

Daily Weather History Graph

Daily Weather History Graph

Search for Another Location

Airport:

Trip Planner

Search our weather history database for the weather conditions in past years. The results will help you decide how hot, cold, wet, or windy it might be!

Date:

Astronomy

Sep. 08, 2012 Rise Set
Actual Time 6:38 AM PDT 7:21 PM PDT
Civil Twilight 6:11 AM PDT 7:48 PM PDT
Nautical Twilight 5:39 AM PDT 8:20 PM PDT
Astronomical Twilight 5:05 AM PDT 8:53 PM PDT
Moon No Moon Rise 2:21 PM PDT (9/8)
Length of Visible Light 13h 37m
Length of Day
12h 43m
Waning Gibbous, 48% of the Moon is Illuminated
Sep 8
Waning Gibbous
Sep 15
New
Sep 22
First Quarter
Sep 29
Full
Oct 8
Last Quarter

Hourly Weather History & Observations

Time (PDT) Temp. Dew Point Humidity Pressure Visibility Wind Dir Wind Speed Gust Speed Precip Events Conditions
12:52 AM 66.0 °F 46.9 °F 50% 29.96 in 10.0 mi Calm Calm - N/A   Partly Cloudy
1:52 AM 66.0 °F 46.0 °F 48% 29.95 in 10.0 mi West 3.5 mph - N/A   Clear
2:52 AM 64.0 °F 46.9 °F 54% 29.96 in 10.0 mi North 4.6 mph - N/A   Clear
3:52 AM 64.9 °F 46.0 °F 50% 29.95 in 10.0 mi NE 5.8 mph - N/A   Scattered Clouds
4:52 AM 64.0 °F 45.0 °F 50% 29.97 in 10.0 mi Calm Calm - N/A   Clear
5:52 AM 64.0 °F 46.0 °F 52% 29.96 in 10.0 mi East 3.5 mph - N/A   Clear
6:52 AM 64.9 °F 46.0 °F 50% 29.98 in 10.0 mi Calm Calm - N/A   Clear
7:52 AM 68.0 °F 45.0 °F 43% 30.00 in 10.0 mi SSE 4.6 mph - N/A   Clear
8:52 AM 70.0 °F 45.0 °F 41% 30.00 in 10.0 mi South 5.8 mph - N/A   Clear
9:52 AM 71.1 °F 46.9 °F 42% 29.99 in 10.0 mi SSE 3.5 mph - N/A   Clear
10:52 AM 73.9 °F 46.9 °F 38% 29.98 in 10.0 mi SSE 6.9 mph - N/A   Clear
11:52 AM 75.0 °F 46.9 °F 37% 29.97 in 10.0 mi South 8.1 mph - N/A   Clear
12:52 PM 75.9 °F 48.9 °F 38% 29.96 in 10.0 mi Variable 6.9 mph - N/A   Clear
1:52 PM 77.0 °F 48.9 °F 37% 29.94 in 10.0 mi South 8.1 mph - N/A   Clear
2:52 PM 75.9 °F 48.0 °F 37% 29.94 in 10.0 mi South 6.9 mph 19.6 mph N/A   Clear
3:52 PM 75.9 °F 48.9 °F 38% 29.91 in 10.0 mi SW 10.4 mph - N/A   Clear
4:52 PM 75.9 °F 48.9 °F 38% 29.91 in 10.0 mi SW 9.2 mph - N/A   Clear
5:52 PM 75.0 °F 48.0 °F 38% 29.91 in 10.0 mi Variable 4.6 mph - N/A   Clear
6:52 PM 72.0 °F 46.9 °F 41% 29.92 in 10.0 mi Variable 3.5 mph - N/A   Clear
7:52 PM 68.0 °F 46.9 °F 47% 29.93 in 10.0 mi Calm Calm - N/A   Clear
8:52 PM 66.0 °F 46.0 °F 48% 29.94 in 10.0 mi Calm Calm - N/A   Clear
9:52 PM 66.0 °F 46.9 °F 50% 29.93 in 10.0 mi SE 3.5 mph - N/A   Clear
10:52 PM 66.0 °F 46.9 °F 50% 29.92 in 10.0 mi Calm Calm - N/A   Clear
11:52 PM 66.9 °F 46.9 °F 49% 29.90 in 10.0 mi SE 3.5 mph - N/A   Clear